Theta_e
333 334 335 335 335 335 334 335 337 341 345 349 355 356 356 355 355 356 357 356 355 355 354 352 352 350 350 350 349 346 347 350 349 347 346 347 347 345 344 343 341 339 337 337
335 334 333 332 332 333 335 335 335 336 336 341 350 353 354 354 353 354 354 352 351 350 351 351 351 351 350 350 349 348 348 347 346 346 345 345 343 343 342 342 342 343 344 343
336 334 333 334 332 333 334 336 336 338 346 343 349 352 352 351 350 354 353 352 351 350 350 350 350 350 349 348 347 347 346 345 343 343 341 340 339 339 337 337 338 339 338 339
335 336 336 333 333 335 334 335 336 337 340 344 348 348 346 347 348 353 352 351 350 349 348 346 345 346 346 346 346 344 342 340 339 339 337 335 334 332 330 329 328 328 328 327
336 335 335 334 336 336 337 336 337 338 343 345 345 345 348 347 348 350 351 351 349 348 347 346 346 345 345 344 342 341 339 336 333 332 331 328 326 325 323 322 322 321 320 320
335 335 338 334 336 336 336 338 338 337 345 345 346 350 352 351 350 349 350 349 347 347 346 345 345 344 344 342 340 338 333 330 327 326 325 323 322 321 320 319 318 318 319 319
335 340 339 340 340 338 339 339 336 335 342 346 347 350 351 351 352 349 348 347 345 344 344 343 342 341 341 338 336 331 327 325 324 321 320 320 319 319 318 317 317 317 317 317
338 344 349 343 337 339 340 337 337 338 340 343 352 352 351 351 350 348 347 343 343 341 338 336 336 336 335 333 327 325 323 322 321 319 317 317 317 317 316 316 315 314 314 313
344 348 344 342 343 339 337 337 337 338 339 350 351 351 349 350 347 345 342 340 338 336 333 331 330 330 330 327 323 322 321 320 319 318 317 316 316 316 314 313 313 313 312 311
341 342 342 342 341 339 338 339 337 337 341 347 349 349 348 346 344 342 339 336 335 333 331 329 326 325 324 322 321 320 319 319 317 317 316 315 316 315 314 313 312 312 311 310
339 341 343 341 341 340 341 341 338 341 344 346 348 348 346 344 342 338 336 333 331 330 328 325 322 320 318 317 316 316 316 316 315 315 315 314 314 314 314 313 312 310 310 309
342 342 345 344 342 341 342 342 344 345 347 347 347 346 344 342 338 336 333 330 327 326 324 322 320 318 317 317 316 316 316 315 315 314 314 314 314 314 313 312 311 310 309 309
338 336 339 338 339 338 342 344 344 345 347 347 345 343 341 339 335 330 328 326 325 323 322 320 318 317 317 317 317 317 316 315 314 313 314 314 314 313 313 312 311 311 310 309
334 334 335 334 337 339 342 343 342 344 344 344 342 338 335 332 327 327 326 324 322 320 319 318 318 318 318 317 317 316 316 315 314 313 312 311 312 311 311 312 311 311 311 310
335 335 334 338 339 341 342 343 344 344 343 340 335 331 329 327 327 326 322 320 319 319 318 319 318 317 316 314 315 316 316 314 313 311 311 311 311 311 311 310 311 311 311 309
336 336 335 338 339 341 341 342 343 342 338 334 330 329 328 327 325 322 319 319 319 319 319 318 317 315 314 316 317 316 315 313 312 311 311 311 310 310 310 311 311 309 307 307
334 338 337 338 340 341 341 341 340 337 333 331 330 328 326 324 322 320 319 318 320 319 318 317 316 315 316 317 317 316 314 313 312 311 310 309 310 312 311 309 307 307 306 306
334 335 336 338 340 340 340 339 336 332 331 329 328 326 324 323 322 320 319 319 319 317 316 316 316 316 315 316 317 314 312 312 311 310 309 311 311 309 308 308 308 307 306 305
333 336 337 337 339 339 338 337 332 330 330 329 327 326 324 323 321 319 318 318 318 318 318 317 316 314 317 318 315 311 312 310 309 308 311 310 309 308 308 308 308 308 308 307
335 337 336 338 337 337 337 333 331 331 329 328 327 325 324 323 320 319 318 318 317 318 318 316 315 315 317 317 313 311 311 309 308 310 311 310 309 309 308 308 308 308 308 308
337 338 339 339 338 335 334 332 331 330 329 328 327 325 324 321 319 318 318 319 317 316 315 314 315 316 314 313 310 311 309 308 309 311 311 310 309 309 309 308 308 308 308 308
338 339 338 336 336 335 332 331 331 329 328 327 326 324 322 320 318 318 318 320 318 313 314 316 317 315 312 310 311 310 309 309 311 311 311 310 309 309 309 308 308 309 309 308
338 337 336 336 335 334 332 331 330 329 328 326 324 322 321 318 317 318 317 317 317 315 314 316 315 314 310 310 312 310 309 310 311 311 310 310 309 309 309 308 308 309 309 307
337 337 336 335 334 333 334 330 329 328 326 324 322 320 318 317 317 317 316 314 313 312 314 316 315 311 307 310 311 310 309 310 311 312 311 309 310 309 309 309 309 309 308 306
336 336 335 335 334 333 331 329 327 326 323 321 320 318 316 316 317 316 316 317 316 315 317 316 312 309 310 311 311 310 310 310 311 310 310 310 310 309 309 309 309 308 308 307
336 335 334 332 332 330 329 326 325 323 320 319 317 317 316 316 317 317 317 317 317 316 316 315 314 311 310 310 310 309 310 310 309 310 310 310 309 309 309 309 308 308 308 305
333 332 332 331 329 328 326 323 321 319 318 318 317 317 317 317 316 317 317 318 317 315 314 312 310 310 309 309 309 310 310 309 309 309 309 310 309 309 309 308 308 308 307 306
Wind_Speed
14 4 8 6 17 13 11 14 9 16 28 31 16 15 15 14 13 12 12 11 9 9 8 9 8 7 5 4 3 5 4 3 7 6 6 6 7 7 6 5 4 4 6 10
20 12 11 10 10 11 11 12 11 8 12 15 15 14 13 13 13 13 12 11 11 9 8 8 8 7 5 1 2 3 3 5 6 6 5 7 7 7 7 6 4 2 2 3
19 17 11 15 15 13 10 8 6 9 9 7 13 14 14 14 13 13 13 12 12 10 9 11 11 8 7 7 7 5 4 4 5 6 7 6 6 6 5 5 3 3 4 5
15 14 20 13 15 8 10 5 4 5 5 4 10 13 11 11 12 13 13 12 11 11 12 11 11 10 9 9 9 8 6 5 5 5 5 5 5 4 3 3 4 5 7 8
14 15 13 19 6 11 13 7 12 5 9 9 11 12 10 11 12 13 13 11 10 11 10 9 9 8 7 7 6 5 4 3 3 4 4 4 5 5 5 6 6 6 7 8
12 14 17 14 17 10 4 9 11 4 12 10 12 10 11 13 13 14 14 13 12 12 10 9 7 7 6 5 3 3 2 2 3 3 4 4 4 4 5 6 6 8 9 10
15 3 16 13 7 13 9 4 9 5 12 11 11 5 16 15 13 15 14 14 13 11 9 7 5 4 4 4 4 2 1 2 2 3 2 3 5 5 7 7 8 7 9 10
16 12 6 15 9 10 9 10 9 9 9 9 12 12 14 14 14 13 13 14 12 12 10 8 5 4 4 4 2 1 0 1 2 4 4 5 7 8 9 8 10 10 9 12
3 7 9 13 25 8 12 10 8 8 9 14 12 12 13 13 13 12 14 12 12 12 10 7 5 2 2 2 0 1 1 3 4 6 6 9 10 11 12 11 13 13 14 16
1 8 11 12 8 6 3 11 7 7 11 12 13 15 14 13 12 11 13 12 10 10 8 6 4 4 4 2 1 1 3 5 7 9 9 11 11 13 12 13 14 14 16 19
6 3 4 5 6 8 7 7 8 9 10 12 15 15 15 13 12 13 13 11 8 7 6 5 4 4 4 2 2 4 6 8 9 10 9 12 15 13 15 15 15 18 20 21
5 3 7 10 7 8 8 9 10 11 12 12 14 15 15 13 14 14 12 10 8 6 6 5 5 4 2 2 4 6 8 9 9 12 14 15 16 17 16 17 17 17 22 21
3 2 11 2 6 6 9 11 11 13 14 15 15 17 17 13 14 13 11 10 9 8 8 7 5 3 1 2 3 6 8 10 12 14 14 15 17 18 20 22 23 21 18 16
6 2 5 5 4 6 9 11 12 15 16 17 18 18 18 16 16 12 10 10 10 9 8 7 4 1 1 3 4 6 9 12 13 15 17 18 18 20 22 22 23 24 22 19
10 7 5 6 6 8 10 12 15 15 15 16 18 17 17 15 13 11 11 10 10 9 7 5 2 1 1 3 5 7 10 12 13 17 17 17 20 20 21 23 24 25 26 30
9 6 7 9 10 11 13 15 16 15 16 14 16 17 15 14 13 12 11 10 10 8 5 4 1 2 1 2 6 11 12 11 9 14 17 18 19 21 22 24 25 25 25 26
10 9 8 9 11 13 13 14 14 14 14 15 16 17 16 14 12 11 11 10 7 7 5 4 2 1 2 5 8 13 16 15 11 14 17 18 19 19 23 22 20 20 22 24
8 8 10 10 11 12 13 14 16 18 15 18 18 16 14 13 11 11 10 10 8 7 5 5 3 2 6 8 8 14 17 13 14 15 16 17 19 20 17 16 18 19 22 26
9 8 9 11 12 13 14 15 19 19 20 19 17 14 13 11 11 11 11 10 8 7 9 5 5 7 11 3 8 16 15 13 14 15 14 16 17 14 15 16 19 21 22 23
11 7 10 13 17 18 15 20 21 20 19 17 15 13 12 11 11 11 10 9 8 6 6 1 4 9 6 5 7 15 15 13 14 14 13 14 13 14 16 18 20 23 26 24
12 11 14 15 16 21 22 22 22 20 19 17 15 13 12 12 12 12 10 10 7 3 3 5 8 4 7 6 14 12 13 12 12 13 13 11 12 14 17 19 22 25 25 28
12 14 15 19 20 21 23 23 21 20 18 16 14 14 13 13 13 12 8 3 10 6 7 9 3 1 6 9 12 12 11 11 11 11 9 10 13 16 20 20 24 27 28 22
11 15 19 20 20 21 22 21 21 19 17 15 14 14 14 14 14 11 8 7 4 7 5 5 4 5 4 8 11 10 10 11 10 9 9 12 15 17 18 21 26 27 28 28
15 18 20 22 23 22 16 20 19 17 15 14 13 13 13 14 13 11 10 8 2 2 7 3 4 4 5 11 9 9 10 11 11 11 12 14 17 19 19 22 25 24 26 28
16 18 21 21 19 16 21 21 18 17 15 13 13 13 11 11 10 10 7 11 4 3 3 4 1 4 8 12 8 9 10 12 12 13 15 16 18 20 21 21 23 24 27 25
16 16 19 22 19 21 20 20 16 16 16 14 14 14 13 10 7 6 6 2 3 2 1 2 4 6 11 10 9 10 11 12 13 14 15 17 17 19 20 22 25 26 24 31
14 17 19 17 18 18 18 16 16 16 16 16 15 14 12 11 9 8 4 9 4 2 4 7 9 5 8 8 8 9 11 12 12 14 15 15 16 17 19 21 23 24 21 31
Wind_Direction
263 66 215 184 262 226 237 281 296 158 220 215 164 163 153 152 153 153 154 151 146 139 137 151 152 149 153 121 101 145 120 59 65 124 124 67 63 69 74 121 151 209 253 270
255 217 218 248 253 244 223 250 287 321 289 95 123 141 152 160 158 158 157 145 138 136 142 159 166 173 160 54 238 163 115 73 70 79 84 65 66 73 80 82 62 45 269 266
243 231 228 228 249 246 238 238 276 295 67 94 129 151 165 163 165 160 158 144 142 136 128 131 148 132 114 122 125 115 108 83 71 71 63 54 53 63 61 49 22 327 317 315
231 220 227 243 232 356 260 220 270 315 132 187 152 163 163 160 162 160 149 149 147 137 130 133 130 114 115 111 113 111 101 79 56 55 47 37 36 32 23 4 337 327 322 320
214 229 241 236 193 230 217 271 255 190 120 147 150 140 155 158 157 159 152 149 149 137 128 119 121 126 120 119 116 114 107 87 59 51 43 23 14 7 355 348 339 333 324 315
231 245 261 236 213 185 225 240 131 174 131 162 154 192 175 163 152 147 150 146 137 130 138 132 135 140 146 140 131 98 71 59 45 40 43 19 5 357 351 346 344 334 330 321
238 338 257 84 353 213 219 109 114 155 137 164 197 57 124 150 136 146 142 136 135 144 135 124 141 145 144 138 107 91 64 51 45 22 353 33 360 351 346 339 329 318 316 315
236 203 290 340 169 227 100 126 125 120 127 154 108 124 135 141 145 131 133 136 136 125 123 115 118 141 135 106 101 92 26 21 15 9 357 348 339 331 323 311 306 311 304 314
346 29 175 164 259 126 143 121 132 127 133 122 135 140 141 141 141 139 145 136 134 127 122 109 93 76 132 113 66 339 332 344 337 335 329 333 320 317 307 307 310 315 319 321
45 71 215 149 101 131 168 134 136 124 119 150 150 148 146 146 143 139 135 136 134 136 127 112 93 82 96 106 93 299 322 316 309 308 306 306 309 305 310 313 316 314 321 315
255 205 207 171 137 149 115 126 120 122 142 151 147 148 148 146 142 139 137 133 135 134 137 124 113 99 90 79 5 320 313 308 303 295 298 308 291 303 304 301 301 302 307 309
341 82 55 115 142 147 146 134 138 145 141 141 149 147 147 143 141 140 140 136 138 138 141 138 141 127 96 29 357 332 314 303 322 311 302 305 308 308 306 298 296 293 291 285
335 211 45 59 126 164 149 147 147 144 147 148 143 145 144 138 141 133 141 144 154 152 143 147 143 133 123 353 331 322 315 310 315 313 309 303 308 311 311 313 308 302 308 317
283 132 165 190 171 162 150 144 142 141 144 143 143 141 141 135 141 146 145 145 142 141 146 145 148 148 324 305 319 315 311 297 287 307 315 312 311 317 307 305 316 317 318 348
206 230 285 131 152 157 160 156 151 149 147 143 144 142 138 146 141 138 138 136 141 143 141 139 147 46 359 331 329 316 302 307 320 317 310 310 301 305 317 317 318 321 332 326
242 225 216 175 171 174 169 168 161 155 150 147 143 141 142 134 134 138 140 148 156 155 149 147 145 154 214 333 319 308 314 309 304 309 313 307 322 323 324 332 333 340 329 322
250 204 207 197 181 175 178 166 157 154 150 146 140 138 135 136 139 147 157 157 148 142 154 167 171 163 289 294 312 316 328 315 316 306 326 328 324 338 335 331 330 321 321 319
212 216 209 196 180 173 173 161 152 154 149 147 143 143 145 151 153 156 158 151 153 159 174 163 198 284 311 298 324 323 310 317 326 325 327 333 345 331 331 323 324 319 319 317
219 222 195 174 172 174 165 154 154 155 149 150 150 152 152 151 151 157 159 159 167 187 187 193 198 270 262 290 324 318 308 330 324 329 328 346 333 331 326 323 318 319 320 320
179 195 164 156 163 162 153 155 156 149 155 154 150 150 153 150 155 159 163 178 192 68 117 155 295 292 280 292 303 306 320 332 331 325 338 335 335 330 322 319 321 320 321 318
164 163 153 152 153 154 157 156 155 158 157 155 156 156 153 154 158 162 173 208 174 170 225 240 262 316 358 341 321 325 332 333 327 326 334 337 326 324 323 326 323 313 319 327
166 160 157 153 156 158 157 159 158 156 156 157 155 155 155 159 165 183 199 34 156 168 258 275 160 107 323 318 309 330 330 330 327 328 332 322 323 335 324 323 316 313 315 326
164 160 162 161 161 155 156 157 155 156 155 157 158 163 170 165 178 179 186 193 204 154 278 336 3 308 278 302 307 322 320 319 320 324 319 324 327 317 312 333 317 316 327 338
164 168 162 162 154 155 154 155 154 153 153 154 163 170 177 169 180 199 109 137 187 229 275 314 286 270 281 297 308 317 315 312 309 306 310 312 314 322 328 325 314 321 333 343
164 160 162 154 155 156 153 152 148 149 155 161 161 174 181 174 182 186 175 133 148 279 331 199 261 270 288 282 307 309 310 307 302 306 304 303 315 320 324 326 326 337 335 346
163 162 154 162 160 154 155 159 154 159 166 157 167 177 181 171 166 161 173 204 217 225 320 221 278 256 308 316 325 313 312 310 308 310 312 311 314 316 327 332 334 338 347 354
159 148 157 157 153 159 159 165 157 162 165 162 165 170 176 176 178 207 180 184 192 109 14 3 345 2 337 333 319 317 319 321 323 318 316 314 319 326 330 333 335 338 355 354